Showing default

STPSAT-5, 43762

Orbit data source: Space-Track

STPSAT-5, 43762 is a payload satellite owned by USAF STP (US) in SSO that was launched on Mon, 03 Dec 2018 UTC via an FALCON 9 launch vehicle from the Air Force Western Test Range (AFWTR). Payload-class satellites include a variety of spacecraft equipped with specific instruments for various scientific and technological missions. These include communications satellites like Starlink; space stations such as the ISS; scientific satellites like the Hubble; Earth observation satellites from companies like Planet Labs, Umbra, and HawkEye 360; GPS; miniature CubeSats for education and research; and military/defense satellites.

Loading next visibility...
Identifier
43762, 2018-099E
Orbit
SSO
Country
Flag of USUS
Related business
Manufacturer
SNC Louisville
Mission
Operational Defense Technology
Bus & Motor
SN-50, Unknown motor
Mass
~110 kg wet, ~100 kg dry
Launch date (UTC)
2018-12-03 (7 years ago)
Launch vehicle
FALCON 9
Launch site
Air Force Western Test Range (AFWTR)
Object type
Payload
Rocket body
Debris
Shape & HBR
Oct Cyl + 2 Pan, 1.0 m
Radar Cross Section
0.541 m², Medium (>0.1 m² and < 1m²)

Expand to show TLE details & history
Last TLE update: 6 hours ago

TLE from 6 hours ago
0 STPSAT-5
1 43762U 18099E   26125.12261433  .00004456  00000-0  25368-3 0  9993
2 43762  97.4116 176.0843 0004841 115.3760 244.7973 15.13323763406359
Epoch: 2026-05-05T02:56Z
TLE epoch observation values (Epoch: 2026-05-05T02:56:33.878Z)
Latitude
-0.00001°
Longitude
-91.05884°
Altitude
530.578 km
Speed
7.597 km/s
True Right ascension
11h 44m 20s
True Declination
0° 00' 00"
Sunlit
Object was in full shadow at epoch
Visualization orbit readout
Latitude
Unknown
Longitude
Unknown
Altitude
Unknown
Speed
Unknown
Apparent Right ascension
Unknown
Apparent Declination
Unknown
Sunlit
N/A
Visualization observer readout
Local Sidereal Time
16:37:54
Azimuth
Unknown
Elevation
Unknown
Doppler factor
Unknown
Orbital elements
Apogee altitude
526.388 km
Perigee altitude
519.706 km
Semi-major axis
6,901.184 km
Eccentricity
0.00048
Inclination
97.4116°
RAAN
176.0843°
Arg. of periapsis
115.376°
True anomaly
244.74712°
Mean anomaly
244.7973°
Eccentric anomaly
244.77221°
Mean motion
3.7858 °/min
Orbital period
95.09 mins
BSTAR
0.00025368
Loading maneuver chart data...
Computing Atmospheric mass density...
Loading historical data...
Loading historical data...
Loading historical data...
Loading historical data...
Loading historical data...
Loading historical data...
Loading historical data...

Documentation

Showing up to 5 results
|